| time (UTC) | temp F | wind direction | speed MPH | gust MPH | rain 1hr in | rain 24hr in | rain mn in | humidity % | barometer mb |
| 20260508233040 | 50 | 14 | 0.0 | 0.0 | 0.00 | 0.01 | 0.00 | 87 | 1019.1 |
| 20260508231539 | 50 | 14 | 0.0 | 0.0 | 0.00 | 0.01 | 0.00 | 87 | 1019.2 |
| 20260508230039 | 50 | 15 | 0.0 | 0.0 | 0.00 | 0.01 | 0.00 | 87 | 1019.2 |
| 20260508224547 | 50 | 15 | 0.0 | 2.0 | 0.00 | 0.01 | 0.00 | 88 | 1019.1 |
| 20260508223135 | 50 | 15 | 0.0 | 1.0 | 0.00 | 0.01 | 0.00 | 88 | 1019.1 |
| 20260508221536 | 50 | 15 | 1.0 | 2.0 | 0.00 | 0.01 | 0.00 | 88 | 1019.1 |
| 20260508220033 | 50 | 15 | 1.0 | 3.0 | 0.00 | 0.01 | 0.00 | 88 | 1019.1 |
| 20260508214550 | 50 | 14 | 0.0 | 2.0 | 0.00 | 0.01 | 0.01 | 88 | 1019.1 |
| 20260508213033 | 51 | 14 | 0.0 | 2.0 | 0.00 | 0.01 | 0.01 | 89 | 1019.2 |
| 20260508211530 | 51 | 14 | 1.0 | 2.0 | 0.00 | 0.01 | 0.01 | 89 | 1019.2 |
| 20260508210033 | 51 | 14 | 1.0 | 2.0 | 0.00 | 0.01 | 0.01 | 89 | 1019.2 |
| 20260508204534 | 51 | 14 | 1.0 | 2.0 | 0.00 | 0.01 | 0.01 | 89 | 1019.1 |
| 20260508203028 | 51 | 14 | 0.0 | 2.0 | 0.00 | 0.01 | 0.01 | 89 | 1019.1 |
| 20260508201527 | 52 | 14 | 0.0 | 2.0 | 0.00 | 0.01 | 0.01 | 88 | 1019.0 |
| 20260508200030 | 52 | 14 | 1.0 | 1.0 | 0.00 | 0.01 | 0.01 | 87 | 1019.0 |
| 20260508194525 | 52 | 14 | 0.0 | 1.0 | 0.00 | 0.02 | 0.01 | 85 | 1018.9 |
| 20260508193024 | 53 | 14 | 0.0 | 1.0 | 0.00 | 0.02 | 0.01 | 84 | 1018.9 |
| 20260508191524 | 53 | 14 | 0.0 | 0.0 | 0.00 | 0.02 | 0.01 | 82 | 1018.8 |
| 20260508190044 | 53 | 14 | 0.0 | 1.0 | 0.00 | 0.02 | 0.01 | 82 | 1018.7 |
| 20260508184530 | 53 | 14 | 1.0 | 2.0 | 0.00 | 0.07 | 0.01 | 80 | 1018.7 |
| 20260508183033 | 53 | 14 | 1.0 | 3.0 | 0.00 | 0.07 | 0.01 | 80 | 1018.6 |
| 20260508181522 | 53 | 14 | 1.0 | 3.0 | 0.00 | 0.07 | 0.01 | 79 | 1018.5 |
| 20260508180021 | 54 | 15 | 2.0 | 3.0 | 0.00 | 0.07 | 0.01 | 77 | 1018.3 |
| 20260508150036 | 54 | 43 | 2.0 | 5.0 | 0.00 | 0.21 | 0.01 | 73 | 1018.1 |
| 20260508144540 | 54 | 150 | 1.0 | 5.0 | 0.00 | 0.23 | 0.01 | 73 | 1018.2 |
| 20260508143035 | 54 | 53 | 2.0 | 5.0 | 0.00 | 0.23 | 0.01 | 74 | 1018.2 |
| 20260508141538 | 54 | 110 | 2.0 | 4.0 | 0.00 | 0.23 | 0.01 | 73 | 1018.3 |
| 20260508140033 | 54 | 9 | 3.0 | 5.0 | 0.00 | 0.23 | 0.01 | 74 | 1018.3 |
| 20260508134535 | 54 | 39 | 2.0 | 5.0 | 0.00 | 0.23 | 0.01 | 75 | 1018.4 |
| 20260508133031 | 53 | 65 | 2.0 | 5.0 | 0.00 | 0.23 | 0.01 | 76 | 1018.4 |
| 20260508131530 | 53 | 84 | 2.0 | 9.0 | 0.00 | 0.23 | 0.01 | 76 | 1018.5 |
| 20260508130034 | 53 | 59 | 4.0 | 8.0 | 0.00 | 0.23 | 0.01 | 78 | 1018.6 |
| 20260508124527 | 52 | 46 | 3.0 | 6.0 | 0.00 | 0.24 | 0.01 | 76 | 1018.7 |
| 20260508123026 | 52 | 86 | 3.0 | 8.0 | 0.00 | 0.24 | 0.01 | 76 | 1018.7 |
| 20260508121525 | 52 | 45 | 4.0 | 7.0 | 0.00 | 0.24 | 0.01 | 78 | 1018.7 |
| 20260508120024 | 52 | 49 | 4.0 | 7.0 | 0.00 | 0.24 | 0.01 | 78 | 1018.8 |
| 20260508114523 | 52 | 79 | 4.0 | 5.0 | 0.00 | 0.24 | 0.01 | 76 | 1018.7 |
| 20260508113023 | 52 | 55 | 2.0 | 5.0 | 0.00 | 0.24 | 0.01 | 77 | 1018.7 |
| 20260508111520 | 52 | 44 | 3.0 | 5.0 | 0.00 | 0.24 | 0.01 | 77 | 1018.7 |
| 20260508110018 | 51 | 24 | 2.0 | 4.0 | 0.00 | 0.24 | 0.01 | 80 | 1018.8 |
| 20260508104516 | 51 | 62 | 2.0 | 4.0 | 0.00 | 0.24 | 0.01 | 81 | 1018.8 |
| 20260508103018 | 51 | 69 | 2.0 | 4.0 | 0.00 | 0.24 | 0.01 | 81 | 1018.8 |
| 20260508101513 | 50 | 90 | 2.0 | 4.0 | 0.00 | 0.24 | 0.01 | 82 | 1018.8 |
| 20260508100013 | 50 | 38 | 1.0 | 5.0 | 0.01 | 0.24 | 0.01 | 84 | 1018.8 |
| 20260508094508 | 50 | 355 | 2.0 | 5.0 | 0.01 | 0.24 | 0.01 | 84 | 1018.8 |
| 20260508093107 | 49 | 48 | 3.0 | 6.0 | 0.01 | 0.24 | 0.01 | 85 | 1018.8 |
| 20260508091510 | 49 | 49 | 2.0 | 5.0 | 0.01 | 0.24 | 0.01 | 87 | 1018.8 |
| 20260508090008 | 49 | 42 | 2.0 | 5.0 | 0.00 | 0.23 | 0.00 | 87 | 1018.7 |
| 20260508084601 | 49 | 70 | 1.0 | 5.0 | 0.00 | 0.24 | 0.00 | 88 | 1018.6 |
| 20260508083100 | 49 | 74 | 3.0 | 4.0 | 0.00 | 0.24 | 0.00 | 89 | 1018.6 |
| 20260508081551 | 49 | 16 | 3.0 | 5.0 | 0.00 | 0.24 | 0.00 | 90 | 1018.6 |
| 20260508080053 | 49 | 63 | 2.0 | 4.0 | 0.00 | 0.24 | 0.00 | 92 | 1018.5 |
| 20260508074547 | 48 | 38 | 0.0 | 4.0 | 0.00 | 0.24 | 0.00 | 93 | 1018.4 |
| 20260508073044 | 48 | 34 | 2.0 | 4.0 | 0.00 | 0.24 | 0.00 | 94 | 1018.2 |
| 20260508071544 | 47 | 40 | 2.0 | 5.0 | 0.00 | 0.24 | 0.00 | 95 | 1018.2 |
| 20260508070041 | 47 | 39 | 1.0 | 4.0 | 0.00 | 0.24 | 0.00 | 96 | 1018.1 |
| 20260508064541 | 47 | 39 | 2.0 | 5.0 | 0.00 | 0.24 | 0.00 | 96 | 1017.9 |
| 20260508063055 | 47 | 19 | 1.0 | 3.0 | 0.00 | 0.24 | 0.00 | 96 | 1017.8 |
| 20260508061536 | 47 | 19 | 1.0 | 3.0 | 0.00 | 0.24 | 0.00 | 96 | 1017.7 |
| 20260508060033 | 47 | 19 | 1.0 | 4.0 | 0.00 | 0.24 | 0.00 | 97 | 1017.6 |
| 20260508054532 | 47 | 19 | 1.0 | 4.0 | 0.00 | 0.24 | 0.00 | 97 | 1017.4 |
| 20260508053031 | 46 | 15 | 1.0 | 3.0 | 0.00 | 0.24 | 0.00 | 96 | 1017.3 |
| 20260508051530 | 46 | 15 | 1.0 | 3.0 | 0.00 | 0.24 | 0.00 | 97 | 1017.3 |
| 20260508050037 | 46 | 15 | 1.0 | 3.0 | 0.00 | 0.24 | 0.00 | 97 | 1017.3 |
| 20260508044528 | 46 | 15 | 0.0 | 0.0 | 0.00 | 0.24 | 0.00 | 96 | 1017.3 |
| 20260508043031 | 46 | 15 | 0.0 | 0.0 | 0.00 | 0.24 | 0.00 | 96 | 1017.2 |
| 20260508041526 | 46 | 15 | 0.0 | 0.0 | 0.00 | 0.24 | 0.00 | 96 | 1017.1 |
| 20260508040034 | 46 | 15 | 0.0 | 0.0 | 0.00 | 0.24 | 0.00 | 96 | 1017.1 |
| 20260508034524 | 46 | 15 | 0.0 | 0.0 | 0.00 | 0.24 | 0.00 | 96 | 1017.1 |
| 20260508033023 | 46 | 15 | 0.0 | 1.0 | 0.00 | 0.24 | 0.00 | 96 | 1017.0 |
| 20260508031522 | 46 | 15 | 2.0 | 3.0 | 0.00 | 0.24 | 0.00 | 96 | 1016.9 |
| 20260508030025 | 46 | 15 | 0.0 | 0.0 | 0.00 | 0.24 | 0.00 | 96 | 1016.8 |
| 20260508024519 | 46 | 15 | 0.0 | 0.0 | 0.00 | 0.24 | 0.00 | 96 | 1016.9 |
| 20260508023019 | 46 | 15 | 0.0 | 0.0 | 0.00 | 0.24 | 0.00 | 96 | 1016.8 |
| 20260508021518 | 46 | 15 | 0.0 | 0.0 | 0.00 | 0.24 | 0.00 | 96 | 1016.9 |
| 20260508020027 | 46 | 15 | 0.0 | 0.0 | 0.00 | 0.24 | 0.00 | 96 | 1016.9 |
| 20260508014518 | 46 | 15 | 0.0 | 0.0 | 0.00 | 0.24 | 0.00 | 96 | 1016.8 |
| 20260508013017 | 46 | 15 | 0.0 | 0.0 | 0.00 | 0.24 | 0.00 | 96 | 1016.8 |
| 20260508011519 | 46 | 15 | 0.0 | 0.0 | 0.00 | 0.24 | 0.00 | 96 | 1016.8 |
| 20260508010017 | 46 | 15 | 0.0 | 0.0 | 0.00 | 0.24 | 0.00 | 96 | 1016.7 |
| 20260508004514 | 46 | 15 | 0.0 | 0.0 | 0.00 | 0.24 | 0.00 | 96 | 1016.7 |
| 20260508003014 | 46 | 15 | 0.0 | 0.0 | 0.00 | 0.24 | 0.00 | 96 | 1016.6 |
| 20260508001533 | 46 | 15 | 0.0 | 0.0 | 0.00 | 0.24 | 0.00 | 96 | 1016.7 |
| 20260508000012 | 46 | 15 | 0.0 | 0.0 | 0.00 | 0.24 | 0.00 | 96 | 1016.8 |
| 20260507234515 | 46 | 15 | 0.0 | 0.0 | 0.00 | 0.24 | 0.00 | 96 | 1016.9 |